Regional Weather Roundup
Issued by NWS Goodland, KS

Home | Current Version | Previous Version | Text Only | Print | Product List | Glossary On
Versions: 1 2 3 4 5 6 7 8 9 10 11 12 13 14 15 16 17 18 19 20 21 22 23 24 25 26 27 28 29 30 31 32 33 34 35 36 37 38 39 40 41 42 43 44 45 46 47 48 49 50
000
ASUS43 KGLD 142308
RWRGLD

GOODLAND FORECAST AREA HOURLY WEATHER ROUNDUP
NATIONAL WEATHER SERVICE GOODLAND KS
400 PM MST SUN FEB 14 2016

...OFFICIAL OBSERVATIONS...

CITY           SKY/WX    TMP DP  RH WIND       PRES   REMARKS
GOODLAND KS    CLOUDY    46  28  49 SW10      29.86F
HILL CITY KS   CLOUDY    49  29  46 SW7       29.87S
IMPERIAL NEB   CLOUDY    45  27  49 SW7       29.81F
MCCOOK NEB     CLOUDY    44  29  55 SW7       29.84S
AKRON CO       CLOUDY    47  26  44 NW17G25   29.84F
BURLINGTON CO  CLOUDY    44  26  49 SW9       29.87S
LIMON CO       CLOUDY    41  30  65 NW3       29.90R
$$

...UNOFFICIAL OBSERVATIONS...

CITY           SKY/WX    TMP DP  RH WIND       PRES   REMARKS
COLBY KS       SUNNY     43  34  70 SW3       29.87S
GOVE KS          N/A     51  32  48 MISG        N/A
LENORA KS        N/A     45  32  60 MISG        N/A
NORTON KS      SUNNY     39  28  65 SW6       29.85S
SHARON SPRINGS   N/A     49  29  45 SW9         N/A
TRENTON NEB      N/A     44  32  63 MISG        N/A
KIT CARSON CO    N/A     46  24  41 MISG        N/A
YUMA CO          N/A     47  33  59 NW10        N/A
$$



USA.gov is the U.S. government's official web portal to all federal, state and local government web resources and services.